Change the Weather History Date:

Thursday, May 30, 2013

  Actual Average Record
Temperature  
Mean Temperature 66 °F 60 °F  
Max Temperature 73 °F 72 °F 105 °F (1934)
Min Temperature 59 °F 49 °F 33 °F (2012)
Degree Days  
Heating Degree Days 0 6  
Month to date heating degree days 278 284  
Since 1 July heating degree days 8176 7879  
Cooling Degree Days 1 1  
Month to date cooling degree days 15 12  
Year to date cooling degree days 15 13  
Growing Degree Days 16 (Base 50)    
Moisture  
Dew Point 60 °F    
Average Humidity 79    
Maximum Humidity 100    
Minimum Humidity 57    
Precipitation  
Precipitation 0.25 in 0.10 in 3.24 in (1943)
Month to date precipitation 4.62 2.72  
Year to date precipitation 7.67 5.92  
Sea Level Pressure  
Sea Level Pressure 29.33 in    
Wind  
Wind Speed 9 mph (East)    
Max Wind Speed 22 mph    
Max Gust Speed 25 mph    
Visibility 7 miles    
Events Rain , Thunderstorm    
T = Trace of Precipitation, MM = Missing Value Source: NWS Daily Summary

Daily Weather History Graph

Daily Weather History Graph

Search for Another Location

Airport or City:

Trip Planner

Search our weather history database for the weather conditions in past years. The results will help you decide how hot, cold, wet, or windy it might be!

Date:

Astronomy

May. 30, 2013 Rise Set
Actual Time 5:57 AM CDT 9:21 PM CDT
Civil Twilight 5:20 AM CDT 9:58 PM CDT
Nautical Twilight 4:32 AM CDT 10:46 PM CDT
Astronomical Twilight 3:31 AM CDT 11:48 PM CDT
Moon 1:12 AM CDT (5/30) 12:19 PM CDT (5/30)
Length of Visible Light 16h 38m
Length of Day
15h 24m
Waning Gibbous, 62% of the Moon is Illuminated
May 30
Waning Gibbous
May 31
Last Quarter
Jun 8
New
Jun 16
First Quarter
Jun 23
Full

Hourly Weather History & Observations

Time (CDT) Temp. Dew Point Humidity Pressure Visibility Wind Dir Wind Speed Gust Speed Precip Events Conditions
12:03 AM 62.6 °F 60.8 °F 94% 29.46 in 2.5 mi East 12.7 mph - N/A   Overcast
12:22 AM 62.6 °F 60.8 °F 94% 29.46 in 1.5 mi East 12.7 mph - N/A   Overcast
12:52 AM 62.1 °F 61.0 °F 96% 29.44 in 1.2 mi East 10.4 mph - N/A   Overcast
1:48 AM 62.6 °F 62.6 °F 100% 29.43 in 1.2 mi East 6.9 mph - N/A Thunderstorm Overcast
1:52 AM 62.1 °F 62.1 °F 100% 29.40 in 1.2 mi East 6.9 mph - N/A Thunderstorm Overcast
2:07 AM 62.6 °F 62.6 °F 100% 29.43 in 2.0 mi ESE 5.8 mph - N/A Thunderstorm Overcast
2:13 AM 62.6 °F 62.6 °F 100% 29.44 in 3.0 mi SE 9.2 mph - N/A Thunderstorm Overcast
2:22 AM 60.8 °F 59.0 °F 94% 29.43 in 2.0 mi SE 11.5 mph 24.2 mph 0.07 in Rain , Thunderstorm Heavy Thunderstorms and Rain
2:31 AM 60.8 °F 59.0 °F 94% 29.41 in 2.5 mi Variable 5.8 mph - 0.15 in Rain , Thunderstorm Heavy Rain
2:39 AM 60.8 °F 59.0 °F 94% 29.40 in 4.0 mi Variable 3.5 mph - 0.18 in Rain Rain
2:52 AM 60.1 °F 57.9 °F 93% 29.37 in 6.0 mi NW 5.8 mph - 0.20 in Rain Light Rain
3:10 AM 59.0 °F 59.0 °F 100% 29.39 in 10.0 mi WNW 5.8 mph - 0.03 in   Overcast
3:26 AM 60.8 °F 57.2 °F 88% 29.40 in 10.0 mi NW 4.6 mph - 0.03 in   Overcast
3:52 AM 60.1 °F 59.0 °F 96% 29.38 in 10.0 mi North 3.5 mph - 0.03 in   Overcast
4:00 AM 60.8 °F 59.0 °F 94% 29.39 in 10.0 mi North 4.6 mph - N/A   Overcast
4:15 AM 60.8 °F 59.0 °F 94% 29.37 in 10.0 mi NNW 6.9 mph - N/A   Overcast
4:52 AM 60.1 °F 59.0 °F 96% 29.34 in 10.0 mi NNE 10.4 mph - N/A   Overcast
5:36 AM 60.8 °F 59.0 °F 94% 29.34 in 10.0 mi NE 9.2 mph - N/A   Overcast
5:52 AM 61.0 °F 60.1 °F 97% 29.33 in 10.0 mi ENE 9.2 mph - N/A   Overcast
6:20 AM 60.8 °F 59.0 °F 94% 29.33 in 8.0 mi ENE 16.1 mph - 0.00 in Rain Light Rain
6:52 AM 61.0 °F 60.1 °F 97% 29.31 in 9.0 mi ENE 13.8 mph - 0.01 in Rain Light Rain
6:58 AM 60.8 °F 60.8 °F 100% 29.33 in 9.0 mi ENE 13.8 mph - N/A   Overcast
7:16 AM 60.8 °F 60.8 °F 100% 29.32 in 1.8 mi ENE 12.7 mph - 0.00 in Rain Light Rain
7:28 AM 60.8 °F 60.8 °F 100% 29.32 in 2.5 mi ENE 11.5 mph - 0.01 in Rain Light Rain
7:36 AM 60.8 °F 60.8 °F 100% 29.32 in 3.0 mi ENE 16.1 mph 23.0 mph 0.01 in   Overcast
7:48 AM 62.6 °F 60.8 °F 94% 29.31 in 5.0 mi ENE 13.8 mph 20.7 mph 0.01 in   Overcast
7:52 AM 62.1 °F 60.1 °F 93% 29.28 in 6.0 mi ENE 18.4 mph 24.2 mph 0.01 in   Overcast
8:52 AM 62.1 °F 60.1 °F 93% 29.28 in 10.0 mi ESE 19.6 mph 24.2 mph N/A   Overcast
9:50 AM 62.6 °F 60.8 °F 94% 29.28 in 7.0 mi SE 19.6 mph 25.3 mph 0.00 in Rain Light Rain
9:52 AM 62.1 °F 60.1 °F 93% 29.26 in 9.0 mi SE 18.4 mph 25.3 mph 0.00 in Rain Light Rain
10:52 AM 63.0 °F 61.0 °F 93% 29.26 in 9.0 mi SSE 16.1 mph 25.3 mph 0.00 in   Overcast
11:38 AM 64.4 °F 60.8 °F 88% 29.29 in 10.0 mi South 15.0 mph - N/A   Overcast
11:52 AM 66.9 °F 61.0 °F 81% 29.27 in 10.0 mi South 16.1 mph 21.9 mph N/A   Overcast
12:14 PM 66.2 °F 60.8 °F 83% 29.30 in 10.0 mi SSW 13.8 mph - N/A   Mostly Cloudy
12:52 PM 69.1 °F 60.1 °F 73% 29.28 in 10.0 mi SSW 11.5 mph - N/A   Overcast
1:52 PM 70.0 °F 57.0 °F 63% 29.28 in 10.0 mi SW 10.4 mph - N/A   Clear
2:52 PM 71.1 °F 57.9 °F 63% 29.27 in 10.0 mi South 8.1 mph - N/A   Mostly Cloudy
3:52 PM 71.1 °F 57.9 °F 63% 29.26 in 10.0 mi SSE 8.1 mph - N/A   Overcast
4:52 PM 73.0 °F 57.9 °F 59% 29.26 in 10.0 mi SSE 10.4 mph - N/A   Partly Cloudy
5:52 PM 73.0 °F 57.9 °F 59% 29.25 in 10.0 mi SSE 8.1 mph - N/A   Clear
6:52 PM 72.0 °F 59.0 °F 64% 29.24 in 10.0 mi Calm Calm - N/A   Mostly Cloudy
7:52 PM 71.1 °F 59.0 °F 66% 29.24 in 10.0 mi SE 4.6 mph - N/A   Mostly Cloudy
8:52 PM 68.0 °F 57.0 °F 68% 29.25 in 10.0 mi East 6.9 mph - N/A   Mostly Cloudy
9:52 PM 64.9 °F 55.9 °F 73% 29.25 in 10.0 mi East 5.8 mph - N/A   Partly Cloudy
10:52 PM 62.1 °F 55.9 °F 80% 29.26 in 10.0 mi NNE 3.5 mph - N/A   Mostly Cloudy
11:52 PM 63.0 °F 57.0 °F 81% 29.24 in 10.0 mi Calm Calm - N/A   Mostly Cloudy